TimeCET,TemperatureF,Dew PointF,Humidity,Sea Level PressureIn,VisibilityMPH,Wind Direction,Wind SpeedMPH,Gust SpeedMPH,PrecipitationIn,Events,Conditions,WindDirDegrees,DateUTC
12:00 AM,42.8,28.4,57,29.68,6.2,Calm,Calm,-,N/A,,Unknown,0,2012-12-05 23:00:00
12:30 AM,42.8,28.4,57,29.68,6.2,Variable,2.3,-,N/A,,Unknown,0,2012-12-05 23:30:00
1:00 AM,51,28,28,29.71,37,SW,16.1,,,,Clear,230,2012-12-06 00:00:00
1:00 AM,50.0,28.4,43,29.68,6.2,SW,16.1,-,N/A,,Unknown,230,2012-12-06 00:00:00
1:30 AM,50.0,28.4,43,29.68,6.2,West,11.5,-,N/A,,Unknown,260,2012-12-06 00:30:00
2:00 AM,50.0,28.4,43,29.68,6.2,West,8.1,-,N/A,,Partly Cloudy,260,2012-12-06 01:00:00
2:30 AM,50.0,28.4,43,29.68,6.2,Variable,3.5,-,N/A,,Partly Cloudy,0,2012-12-06 01:30:00
3:00 AM,46.4,30.2,53,29.68,6.2,SSE,3.5,-,N/A,,Partly Cloudy,150,2012-12-06 02:00:00
3:15 AM,46.4,30.2,53,29.68,6.2,Variable,3.5,-,N/A,,Mostly Cloudy,0,2012-12-06 02:15:00
4:07 AM,44.6,30.2,57,29.68,6.2,WSW,4.6,-,N/A,,Mostly Cloudy,250,2012-12-06 03:07:00
4:34 AM,50.0,32.0,50,29.68,6.2,West,16.1,28.8,N/A,,Mostly Cloudy,270,2012-12-06 03:34:00
5:00 AM,50.0,32.0,50,29.68,6.2,West,16.1,-,N/A,,Mostly Cloudy,280,2012-12-06 04:00:00
5:39 AM,50.0,32.0,50,29.68,6.2,West,17.3,-,N/A,,Mostly Cloudy,270,2012-12-06 04:39:00
6:00 AM,50.0,32.0,50,29.68,6.2,West,15.0,-,N/A,,Mostly Cloudy,280,2012-12-06 05:00:00
6:30 AM,50.0,32.0,50,29.68,6.2,West,17.3,-,N/A,,Mostly Cloudy,260,2012-12-06 05:30:00
7:00 AM,49,32,39,29.70,7,SW,12.7,,,,Scattered Clouds,230,2012-12-06 06:00:00
7:00 AM,50.0,32.0,50,29.68,6.2,WSW,13.8,-,N/A,,Scattered Clouds,240,2012-12-06 06:00:00
7:30 AM,50.0,30.2,47,29.71,6.2,WSW,11.5,25.3,N/A,,Scattered Clouds,240,2012-12-06 06:30:00
8:00 AM,48.2,32.0,54,29.74,6.2,Variable,2.3,-,N/A,,Scattered Clouds,0,2012-12-06 07:00:00
8:30 AM,48.2,32.0,54,29.77,6.2,SW,6.9,-,N/A,,Scattered Clouds,230,2012-12-06 07:30:00
9:05 AM,50.0,33.8,54,29.77,6.2,WSW,4.6,-,N/A,,Partly Cloudy,250,2012-12-06 08:05:00
9:30 AM,50.0,33.8,54,29.80,6.2,South,4.6,-,N/A,,Partly Cloudy,180,2012-12-06 08:30:00
10:00 AM,48.2,33.8,58,29.80,6.2,SW,4.6,-,N/A,,Partly Cloudy,220,2012-12-06 09:00:00
10:30 AM,51.8,41.0,67,29.80,6.2,SSE,8.1,-,N/A,,Partly Cloudy,160,2012-12-06 09:30:00
11:00 AM,51.8,41.0,67,29.80,6.2,SSE,11.5,-,N/A,,Scattered Clouds,150,2012-12-06 10:00:00
11:30 AM,53.6,39.2,58,29.80,6.2,South,4.6,-,N/A,,Scattered Clouds,180,2012-12-06 10:30:00
1:00 PM,48,35,50,29.85,7,NW,13.8,,,Rain,Light Rain Showers,310,2012-12-06 12:00:00
2:00 PM,53.6,35.6,51,29.83,6.2,NNW,3.5,-,N/A,Thunderstorm,Thunderstorm,330,2012-12-06 13:00:00
2:30 PM,48.2,39.2,71,29.86,6.2,NNW,16.1,-,N/A,Thunderstorm,Thunderstorm,340,2012-12-06 13:30:00
2:41 PM,46.4,39.2,76,29.86,6.2,NW,12.7,-,N/A,Rain,Rain Showers,320,2012-12-06 13:41:00
3:00 PM,46.4,39.2,76,29.86,5.0,NNW,23.0,-,N/A,Rain,Rain Showers,340,2012-12-06 14:00:00
3:30 PM,44.6,41.0,87,29.86,5.0,SSE,4.6,-,N/A,Rain,Rain Showers,160,2012-12-06 14:30:00
4:00 PM,44.6,41.0,87,29.86,6.2,SSW,6.9,-,N/A,,Scattered Clouds,200,2012-12-06 15:00:00
4:30 PM,44.6,39.2,81,29.86,6.2,WSW,9.2,-,N/A,,Partly Cloudy,240,2012-12-06 15:30:00
5:00 PM,44.6,37.4,76,29.86,6.2,WSW,9.2,-,N/A,,Partly Cloudy,250,2012-12-06 16:00:00
5:30 PM,44.6,35.6,71,29.86,6.2,WSW,6.9,-,N/A,,Partly Cloudy,250,2012-12-06 16:30:00
6:00 PM,44.6,37.4,76,29.86,6.2,West,5.8,-,N/A,,Partly Cloudy,280,2012-12-06 17:00:00
6:30 PM,41.0,35.6,81,29.89,6.2,SE,3.5,-,N/A,,Partly Cloudy,130,2012-12-06 17:30:00
7:00 PM,41,36,75,29.90,16,South,2.3,,,,Partly Cloudy,170,2012-12-06 18:00:00
7:00 PM,41.0,35.6,81,29.89,6.2,Variable,3.5,-,N/A,,Partly Cloudy,0,2012-12-06 18:00:00
7:30 PM,39.2,35.6,87,29.89,6.2,East,3.5,-,N/A,,Partly Cloudy,100,2012-12-06 18:30:00
8:00 PM,39.2,35.6,87,29.89,6.2,SSE,3.5,-,N/A,,Partly Cloudy,160,2012-12-06 19:00:00
8:30 PM,41.0,33.8,76,29.92,6.2,SW,6.9,-,N/A,,Partly Cloudy,220,2012-12-06 19:30:00
9:00 PM,41.0,33.8,76,29.92,6.2,SW,4.6,-,N/A,,Partly Cloudy,230,2012-12-06 20:00:00
9:30 PM,42.8,33.8,70,29.92,6.2,SW,6.9,-,N/A,,Partly Cloudy,230,2012-12-06 20:30:00
10:30 PM,44.6,33.8,66,29.92,6.2,SW,8.1,-,N/A,,Partly Cloudy,230,2012-12-06 21:30:00
11:00 PM,42.8,33.8,70,29.92,6.2,SSW,9.2,-,N/A,,Partly Cloudy,210,2012-12-06 22:00:00
11:30 PM,42.8,33.8,70,29.92,6.2,SW,9.2,-,N/A,,Scattered Clouds,220,2012-12-06 22:30:00